星链-32489 (STARLINK-32489)

导读

STARLINK-32489是美国SpaceX星链星座的组网卫星,于2024年11月9日发射入轨,服务于星链星座全球高速互联网覆盖项目。作为低轨通信卫星,它延续了星链卫星模块化设计,承担提供偏远地区网络接入、机载海事连通以及面向民用与军方的多场景宽带服务等任务,助力星链星座规模扩容与服务能力提升。

Basic Information
目录编号:
61893
目录名称:
STARLINK-32489
国际标识:
2024-204V
轨道中心:
EARTH
卫星名称:
星链-32489
卫星全名:
星链-32489 (STARLINK-32489)
卫星状态:
在轨 (已飞行664 天)
发射日期:
2024-11-09 UTC
国别 :
美国 (US)
星等 :
--
Orbit Information
数据来源 国际轨道数据
星历时间: 2026-09-04T01:31:12+0800
10小时前
查看轨道信息
半长轴: 6840.874km
偏心率: 0.000132
轨道倾角: 53.162°
近地点辐角 83.238°
升交点赤经 16.037°
平近点角 276.877°
近地点: 461.834km
远地点: 463.64km
周期: 93.848分钟
每日圈数: 15.343888
Detailed Information
固有亮度:
5
最大亮度:
2.5
卫星平台:
Starlink V1.0
覆盖范围:
全球
运营商:
太空探索技术公司
运营商所在国:
美国
制造商(研发单位):
太空探索技术公司
制造商所在国:
美国
使用方式:
暂无
Satellite Introduction
Starlink 计划是 SpaceX 推出的全球卫星互联网项目,通过发射低轨道卫星,为全球尤其是偏远地区提供高速、低延迟的互联网服务。自 2019 年起,Starlink 已部署数千颗卫星,旨在缩小全球数字鸿沟,推动互联网普及。该项目还为军事、航空等行业提供通信支持,带来广泛经济效益。
2D Orbit Map
3D Orbit Map
Orbit Altitude Analysis Chart
Orbit Inclination Analysis Chart
Orbit Comprehensive Analysis Chart
View Comprehensive Chart
Conjunction Data List
Event ID Objects TCA Miss Dist (km) Collision Risk Probability Collision Risk Index (CRI) Action
CDM_260830-181006-035206-189324
STRIX-4 (60352)
2026-08-30T
18:10:35+0000
0.277 km
中距离
5.06719E-4 高风险 0.89
CDM_260904-234205-083006-189321
2026-09-04T
23:42:49+0000
0.971 km
远距离
1.799743E-5 中风险 0.6
CDM_260904-220905-083006-189321
2026-09-04T
22:09:02+0000
1.222 km
极远距离
8.123614E-6 低风险 0.53
CDM_260903-055606-189306-489223
OBJECT S (64892)
2026-09-03T
05:56:31+0000
1.921 km
极远距离
3.154552E-6 低风险 0.45
CDM_260905-011605-083006-189321
2026-09-05T
01:16:37+0000
1.874 km
极远距离
2.146006E-6 低风险 0.42
CDM_260903-050906-189306-489223
OBJECT S (64892)
2026-09-03T
05:09:36+0000
2.656 km
极远距离
1.573529E-6 低风险 0.39
CDM_260904-203505-083006-189321
2026-09-04T
20:35:14+0000
2.255 km
极远距离
1.391061E-6 低风险 0.38
CDM_260903-150705-262506-189322
2026-09-03T
15:07:08+0000
2.913 km
极远距离
1.238773E-6 低风险 0.37
CDM_260904-011705-263606-189321
2026-09-04T
01:17:04+0000
2.945 km
极远距离
1.222397E-6 低风险 0.37